Port Lavaca, TX

6:22 AM CDT on June 19, 2018 (GMT -0500)
Port Lavaca

Weather History for KPKV - June, 2018

Change the Weather History Date:

Wednesday, June 13, 2018

  Actual Average (KVCT) Record (KVCT)
Temperature  
Mean Temperature 84 °F -  
Max Temperature 92 °F 90 °F 103 °F (1911)
Min Temperature 76 °F 73 °F 57 °F (1903)
Cooling Degree Days 19    
Growing Degree Days 34 (Base 50)    
Moisture  
Dew Point 73 °F    
Average Humidity 72    
Maximum Humidity 93    
Minimum Humidity 48    
Precipitation  
Precipitation 0.00 in - - ()
Sea Level Pressure  
Sea Level Pressure 30.00 in    
Wind  
Wind Speed 8 mph (SE)    
Max Wind Speed 16 mph    
Max Gust Speed 21 mph    
Visibility 10 miles    
Events      
Averages and records for this station are not official NWS values.
T = Trace of Precipitation, MM = Missing Value Source: NWS Daily Summary

Daily Weather History Graph

Daily Weather History Graph

Search for Another Location

Airport or City:

Astronomy

Jun. 13, 2018 Rise Set
Actual Time 6:28 AM CDT 8:25 PM CDT
Civil Twilight 6:01 AM CDT 8:52 PM CDT
Nautical Twilight 5:28 AM CDT 9:24 PM CDT
Astronomical Twilight 4:54 AM CDT 9:59 PM CDT
Moon 6:24 AM CDT (6/13) 8:26 PM CDT (6/13)
Length of Visible Light 14h 50m
Length of Day
13h 57m
Waning Crescent, 0% of the Moon is Illuminated
Jun 13
Waning Crescent
Jun 13
New
Jun 20
First Quarter
Jun 27
Full
Jul 6
Last Quarter

Hourly Weather History & Observations

Time (CDT) Temp. Heat Index Dew Point Humidity Pressure Visibility Wind Dir Wind Speed Gust Speed Precip Events Conditions
12:15 AM 80.2 °F 85.7 °F 75.6 °F 86% 29.97 in 10.0 mi SE 6.9 mph - N/A   Scattered Clouds
12:35 AM 80.1 °F 85.2 °F 75.6 °F 86% 29.97 in 10.0 mi SE 8.1 mph - N/A   Scattered Clouds
1:00 AM 80.6 °F 86.6 °F 76.1 °F 86% 29.97 in 10.0 mi SE 8.1 mph - N/A   Scattered Clouds
1:15 AM 80.6 °F 86.6 °F 76.1 °F 86% 29.97 in 10.0 mi SE 9.2 mph - N/A   Scattered Clouds
1:35 AM 80.6 °F 86.6 °F 76.1 °F 86% 29.97 in 10.0 mi SE 8.1 mph - N/A   Clear
1:55 AM 80.1 °F 85.4 °F 75.7 °F 87% 29.97 in 10.0 mi SSE 6.9 mph - N/A   Scattered Clouds
2:15 AM 79.7 °F - 75.7 °F 88% 29.97 in 10.0 mi SSE 5.8 mph - N/A   Scattered Clouds
2:35 AM 79.7 °F - 75.7 °F 88% 29.97 in 10.0 mi SE 4.6 mph - N/A   Mostly Cloudy
2:55 AM 79.5 °F - 75.6 °F 88% 29.97 in 10.0 mi SSE 4.6 mph - N/A   Scattered Clouds
3:15 AM 79.0 °F - 75.6 °F 89% 29.97 in 10.0 mi SE 4.6 mph - N/A   Scattered Clouds
3:35 AM 78.4 °F - 75.2 °F 90% 29.97 in 10.0 mi SSE 4.6 mph - N/A   Clear
3:55 AM 78.1 °F - 75.2 °F 91% 29.97 in 10.0 mi SSE 4.6 mph - N/A   Clear
4:15 AM 77.5 °F - 74.7 °F 91% 29.97 in 7.0 mi SE 4.6 mph - N/A   Clear
4:40 AM 77.4 °F - 74.7 °F 91% 29.97 in 7.0 mi ESE 3.5 mph - N/A   Scattered Clouds
5:00 AM 77.2 °F - 74.7 °F 92% 29.97 in 7.0 mi Calm Calm - N/A   Scattered Clouds
5:15 AM 77.5 °F - 74.8 °F 91% 29.97 in 7.0 mi SSE 3.5 mph - N/A   Clear
5:35 AM 77.4 °F - 74.8 °F 92% 29.97 in 7.0 mi SSE 3.5 mph - N/A   Scattered Clouds
5:55 AM 77.0 °F - 74.5 °F 92% 29.97 in 7.0 mi SE 4.6 mph - N/A   Scattered Clouds
6:15 AM 76.5 °F - 74.3 °F 93% 29.98 in 7.0 mi SE 4.6 mph - N/A   Clear
6:35 AM 76.6 °F - 74.3 °F 92% 29.99 in 7.0 mi SE 3.5 mph - N/A   Scattered Clouds
6:55 AM 77.2 °F - 74.3 °F 91% 29.99 in 7.0 mi SE 5.8 mph - N/A   Clear
7:20 AM 78.1 °F - 74.7 °F 89% 30.00 in 10.0 mi SE 3.5 mph - N/A   Clear
7:35 AM 79.3 °F - 75.2 °F 87% 30.01 in 10.0 mi Calm Calm - N/A   Clear
7:55 AM 81.0 °F 87.1 °F 75.6 °F 84% 30.02 in 10.0 mi SE 4.6 mph - N/A   Clear
8:15 AM 82.6 °F 89.9 °F 75.4 °F 79% 30.02 in 10.0 mi SE 6.9 mph - N/A   Clear
8:35 AM 83.7 °F 91.3 °F 75.0 °F 75% 30.03 in 10.0 mi SSE 8.1 mph - N/A   Clear
8:55 AM 84.6 °F 92.1 °F 74.3 °F 71% 30.03 in 10.0 mi SE 11.5 mph - N/A   Scattered Clouds
9:15 AM 85.3 °F 92.2 °F 73.4 °F 67% 30.04 in 10.0 mi SSE 10.4 mph - N/A   Scattered Clouds
9:35 AM 85.1 °F 91.1 °F 72.0 °F 65% 30.05 in 10.0 mi SSE 8.1 mph - N/A   Scattered Clouds
9:55 AM 87.1 °F 93.2 °F 71.6 °F 60% 30.05 in 10.0 mi SSE 10.4 mph 17.3 mph N/A   Clear
10:15 AM 88.0 °F 95.1 °F 72.3 °F 60% 30.05 in 10.0 mi SE 12.7 mph 20.7 mph N/A   Clear
10:35 AM 88.5 °F 95.3 °F 72.0 °F 58% 30.05 in 10.0 mi SSE 10.4 mph - N/A   Scattered Clouds
11:00 AM 89.1 °F 94.1 °F 70.0 °F 53% 30.05 in 10.0 mi SSE 12.7 mph 16.1 mph N/A   Scattered Clouds
11:20 AM 90.1 °F 96.3 °F 70.7 °F 53% 30.05 in 10.0 mi SE 9.2 mph 17.3 mph N/A   Scattered Clouds
11:40 AM 89.1 °F 94.6 °F 70.5 °F 54% 30.05 in 10.0 mi South 9.2 mph - N/A   Mostly Cloudy
11:55 AM 90.1 °F 97.3 °F 71.8 °F 55% 30.06 in 10.0 mi South 10.4 mph - N/A   Mostly Cloudy
12:15 PM 92.5 °F 98.4 °F 70.2 °F 48% 30.05 in 10.0 mi SE 12.7 mph 18.4 mph N/A   Mostly Cloudy
12:35 PM 91.8 °F 97.5 °F 70.2 °F 49% 30.05 in 10.0 mi SE 11.5 mph 18.4 mph N/A   Scattered Clouds
12:55 PM 92.1 °F 98.8 °F 71.2 °F 50% 30.04 in 10.0 mi SE 13.8 mph 18.4 mph N/A   Scattered Clouds
1:15 PM 91.0 °F 98.2 °F 72.0 °F 53% 30.04 in 10.0 mi ESE 13.8 mph 17.3 mph N/A   Scattered Clouds
1:35 PM 91.0 °F 97.1 °F 70.3 °F 51% 30.03 in 10.0 mi SE 11.5 mph 16.1 mph N/A   Scattered Clouds
1:55 PM 91.6 °F 99.3 °F 72.5 °F 53% 30.02 in 10.0 mi ESE 15.0 mph 18.4 mph N/A   Scattered Clouds
2:15 PM 90.9 °F 99.4 °F 73.2 °F 56% 30.01 in 10.0 mi ESE 11.5 mph 19.6 mph N/A   Clear
2:35 PM 91.4 °F 99.5 °F 72.5 °F 54% 30.01 in 10.0 mi ESE 16.1 mph - N/A   Clear
2:55 PM 91.4 °F 99.5 °F 72.7 °F 54% 30.00 in 10.0 mi ESE 15.0 mph 18.4 mph N/A   Clear
3:20 PM 91.2 °F 99.1 °F 72.5 °F 54% 29.99 in 10.0 mi ESE 15.0 mph 18.4 mph N/A   Clear
3:35 PM 91.4 °F 98.9 °F 72.3 °F 53% 29.99 in 10.0 mi ESE 13.8 mph - N/A   Clear
4:00 PM 91.6 °F 99.3 °F 72.3 °F 53% 29.98 in 10.0 mi ESE 16.1 mph - N/A   Clear
4:15 PM 90.9 °F 97.8 °F 71.8 °F 53% 29.97 in 10.0 mi East 15.0 mph 18.4 mph N/A   Clear
4:35 PM 91.4 °F 99.5 °F 72.5 °F 54% 29.97 in 10.0 mi ESE 13.8 mph - N/A   Clear
4:55 PM 90.7 °F 98.5 °F 72.5 °F 55% 29.97 in 10.0 mi SE 12.7 mph - N/A   Clear
5:20 PM 89.6 °F 97.2 °F 72.7 °F 57% 29.96 in 10.0 mi ESE 12.7 mph 19.6 mph N/A   Clear
5:35 PM 89.4 °F 97.3 °F 72.7 °F 58% 29.96 in 10.0 mi ESE 12.7 mph - N/A   Clear
5:55 PM 88.9 °F 96.1 °F 72.1 °F 58% 29.96 in 10.0 mi ESE 16.1 mph - N/A   Clear
6:15 PM 88.3 °F 95.9 °F 73.0 °F 60% 29.96 in 10.0 mi ESE 13.8 mph - N/A   Clear
6:35 PM 88.2 °F 95.5 °F 72.7 °F 60% 29.96 in 10.0 mi SE 15.0 mph 19.6 mph N/A   Clear
6:55 PM 87.4 °F 95.3 °F 73.4 °F 63% 29.96 in 10.0 mi SE 10.4 mph - N/A   Clear
7:15 PM 86.9 °F 92.9 °F 71.4 °F 60% 29.96 in 10.0 mi SE 15.0 mph 19.6 mph N/A   Clear
7:35 PM 85.6 °F 91.5 °F 71.6 °F 63% 29.97 in 10.0 mi SE 15.0 mph - N/A   Clear
7:55 PM 84.6 °F 90.3 °F 72.0 °F 66% 29.97 in 10.0 mi SE 12.7 mph 18.4 mph N/A   Clear
8:15 PM 83.3 °F 89.3 °F 72.9 °F 71% 29.97 in 10.0 mi SE 13.8 mph 17.3 mph N/A   Clear
8:35 PM 82.4 °F 88.4 °F 73.6 °F 75% 29.97 in 10.0 mi SE 12.7 mph 16.1 mph N/A   Clear
8:55 PM 82.0 °F 87.4 °F 73.0 °F 74% 29.98 in 10.0 mi SE 11.5 mph - N/A   Clear
9:15 PM 81.1 °F 86.2 °F 73.4 °F 77% 29.98 in 10.0 mi SE 11.5 mph - N/A   Clear
9:35 PM 81.1 °F 86.4 °F 73.6 °F 78% 29.99 in 10.0 mi SE 10.4 mph - N/A   Clear
9:55 PM 80.8 °F 85.9 °F 73.9 °F 80% 30.00 in 10.0 mi SE 9.2 mph - N/A   Clear
10:15 PM 80.6 °F 85.7 °F 74.1 °F 81% 30.00 in 10.0 mi SE 9.2 mph - N/A   Clear
10:35 PM 81.0 °F 86.5 °F 74.7 °F 81% 30.01 in 10.0 mi SE 11.5 mph - N/A   Clear
10:55 PM 80.8 °F 85.6 °F 73.4 °F 78% 30.01 in 10.0 mi SSE 10.4 mph - N/A   Clear
11:15 PM 80.4 °F 85.0 °F 73.4 °F 79% 30.02 in 10.0 mi SSE 8.1 mph - N/A   Clear
11:35 PM 79.7 °F - 73.6 °F 81% 30.02 in 10.0 mi SSE 8.1 mph - N/A   Clear
11:55 PM 79.7 °F - 73.8 °F 82% 30.01 in 10.0 mi SSE 6.9 mph - N/A   Clear